Location: *
(60.1759°S, 155.0663°W)
Time: 16:27:23
(UTC+00:00)

Cosmos 1680 Rocket - Pass Details

Date: 17 September 2019
Orbit: 760 x 780 km, 74.1° (Epoch: 15 October)

Event Time Altitude Azimuth Distance (km) Brightness Sun altitude
Rises 13:19:01 0° 213° (SSW) 3,309 6.9 -22.3°
Reaches altitude 10° 13:21:26 10° 215° (SW) 2,377 6.1 -22.0°
Maximum altitude 13:26:48 68° 296° (WNW) 856 3.4 -21.5°
Drops below altitude 10° 13:32:08 10° 18° (NNE) 2,355 5.8 -21.0°
Sets 13:34:31 0° 20° (NNE) 3,276 6.6 -20.7°
